Location: Angwan Shehu
(11.2514°N, 7.4613°E)
Time: 00:54:52
(UTC+00:00)

Tiros 1 - Pass Details

Date: 27 April 2021
Orbit: 630 x 664 km, 48.4° (Epoch: 06 May)

Event Time Altitude Azimuth Distance (km) Brightness Sun altitude
Rises 02:28:44 0° 189° (S) 2,979 - -38.6°
Reaches altitude 10° 02:31:45 10° 170° (S) 2,064 - -37.9°
Maximum altitude 02:34:57 18° 128° (SE) 1,599 - -37.3°
Exits shadow 02:36:54 14° 98° (E) 1,782 9.9 -36.8°
Drops below altitude 10° 02:38:08 10° 85° (E) 2,053 10.4 -36.6°
Sets 02:41:06 0° 66° (ENE) 2,956 11.5 -35.9°
